Weather in Oklahoma City

United States     35°27′38″N   97°32′27″W
temp.,
°C
wind,
m/s
gust,
m/s
humid.,
%
clouds,
%
prec.,
mm/h
press.,
hPa
HPBL,
m
25 may, wed
wed2501:00+14nnw4781100 0.4 1008360
04:00+12nw61184100 0.1 1007552
07:00+11wnw4795100 5.0 1009479
10:00+13nw6886100 3.3 1008734
13:00+12w5889100 4.4 1009709
16:00+12wnw61088100 2.2 1008714
19:00+11wnw61190100 2.8 1008757
22:00+11wnw61291100 0.2 1009724
26 may, thu
thu2601:00+11wnw51091100 0.2 1009637
04:00+12wnw81387100 0.0 1009918
07:00+13wnw91576100 0.0 1010897
10:00+16nw913640 0.0 10121025
13:00+20nw912470 0.0 10121656
16:00+23nnw813390 0.0 10121894
19:00+21n47500 0.0 1011362
22:00+16nw12590 0.0 101311
27 may, fri
fri2701:00+14se22680 0.0 101412
04:00+14wsw33630 0.0 101536
07:00+15wnw22604 0.0 101611
10:00+22e10462 0.0 1016319
13:00+27s44400 0.0 10151067
16:00+28s56420 0.0 10131293
19:00+26sse58590 0.0 1011440
22:00+21se714760 0.0 1010299
28 may, sat
sat2801:00+19sse716740 0.0 1010372
04:00+20sse8207142 0.0 1008475
07:00+20sse81876100 0.0 1008432
10:00+25s10176631 0.0 1006652
13:00+31ssw11155168 0.0 10041126
16:00+34s1015475 0.0 10021711
19:00+30s1220539 0.0 1000811
22:00+28s1224465 0.0 1000796
29 may, sun
sun2901:00+28ssw12243986 0.0 1000819
04:00+26ssw112342100 0.0 1001786
07:00+23s10225520 0.0 1002584
10:00+27ssw10196157 0.0 1002801
13:00+32ssw11154593 0.0 10021205
16:00+32s1116465 0.0 10011361
19:00+29sse1220515 0.0 1001845
22:00+27sse1222455 0.0 1004837